Location: Kolin
(50.0330°N, 15.2000°E)
Time: 08:12:37
(UTC+02:00)

Gurwin Techsat 1B - Pass Details

Date: 14 August 2022
Orbit: 811 x 814 km, 98.8° (Epoch: 25 September)

Event Time Altitude Azimuth Distance (km) Brightness Sun altitude
Rises 02:08:37 0° 30° (NNE) 3,350 13.1 -24.0°
Reaches altitude 10° 02:12:11 10° 54° (NE) 2,412 11.8 -23.8°
Maximum altitude 02:14:59 14° 86° (E) 2,118 11.0 -23.7°
Drops below altitude 10° 02:17:46 10° 118° (ESE) 2,401 11.0 -23.5°
Enters shadow 02:18:31 - 125° (SE) 2,561 11.1 -23.5°
